Location: Fours
(44.3167°N, 6.7000°E)
Time: 12:47:41
(UTC+00:00)

Cosmos 389 Rocket - Pass Details

Date: 30 November 2020
Orbit: 442 x 473 km, 81.1° (Epoch: 25 January)

Event Time Altitude Azimuth Distance (km) Brightness Sun altitude
Rises 16:32:38 0° 190° (S) 2,428 6.6 -6.7°
Reaches altitude 10° 16:34:41 10° 191° (SSW) 1,560 5.7 -7.1°
Maximum altitude 16:38:05 84° 279° (W) 452 2.4 -7.6°
Drops below altitude 10° 16:41:31 10° 9° (N) 1,571 4.8 -8.2°
Sets 16:43:36 0° 10° (N) 2,447 5.8 -8.5°
